Location: Centerville
(32.8776°N, 96.6203°W)
Time: 00:32:13
(UTC+00:00)

CZ-2C R/B - Pass Details

Date: 17 June 2021
Orbit: 640 x 704 km, 98.3° (Epoch: 01 August)

Event Time Altitude Azimuth Distance (km) Brightness Sun altitude
Rises 02:42:11 0° 22° (NNE) 3,096 7.4 -12.2°
Reaches altitude 10° 02:44:35 10° 30° (NNE) 2,175 6.5 -12.6°
Maximum altitude 02:49:02 38° 99° (E) 1,071 4.3 -13.4°
Enters shadow 02:52:14 17° 159° (SSE) 1,736 5.3 -13.9°
